sat.trackr.live / text

‹ back to catalog

ONEWEB-0515

NORAD 54133 · 2022-138W

PAYLOAD ACTIVE UNKNOWN

§ Identity

Operator
Country
UK
Launch date
2022-10-22
Launch site
SRILR
Launch vehicle
Mass (kg)
RCS (m²)

Purposes: comms

External: N2YO · Heavens-Above · Gunter

§ Orbital elements

Epoch: 2026-09-19T23:11:07.382688Z

Period
109.03 min
Inclination
87.9146°
Eccentricity
0.0001305
Mean motion
13.20771914 rev/d
Perigee alt
1,180.8 km
Apogee alt
1,182.8 km
Semi-major
7,559.9 km
B*
7.1503e-5
RAAN
255.5265°
Arg perigee
107.5152°
Mean anomaly
252.6124°
Rev number
19,181

§ Raw data

ONEWEB-05151 54133U 22138W   26262.96605767  .00000042  00000+0  71503-4 0  99912 54133  87.9146 255.5265 0001305 107.5152 252.6124 13.20771914191810

JSON: /api/v1/satellites/54133 · /tle

For live sub-satellite position, see the globe view (requires WebGL).

§ Visibility from observer

Set your observer location to see the next 7 days of passes ≥ 10°. The values pass through the URL so the page stays shareable.

No JS? Fill the form by hand. The geolocation button needs JavaScript.